Hourly Data Report for November 03, 2018

CARBERRY CS
MANITOBA
Current Station Operator: ECCC - MSC

49°54'20.900" N
99°21'26.800" W
383.50 m
5010547
71170
WZE

Download Data

Hourly Data (November 2018)
Hourly Data Report for November 3, 2018
TIME
LST
Temp Definition
°C
Dew Point Definition
°C
Rel Hum Definition
%
Precip. Amount Definition
mm

Wind Dir Definition
10's deg

Wind Spd Definition
km/h
Visibility Definition
km
Stn Press Definition
kPa
Hmdx Definition


Wind Chill Definition


Weather Definition


00:00 -2.3 -4.0 88 0.0 4 20   97.09   -8 LegendNANA
01:00 -2.4 -4.2 88 0.0 4 17   97.16   -8 LegendNANA
02:00 -2.3 -3.8 89 0.0 4 17   97.19   -8 LegendNANA
03:00 -2.2 -4.0 88 0.0 3 17   97.21   -8 LegendNANA
04:00 -2.2 -3.9 88 0.0 3 15   97.27   -7 LegendNANA
05:00 -2.2 -3.9 88 0.0 3 14   97.35   -7 LegendNANA
06:00 -2.3 -4.1 87 0.0 3 16   97.42   -7 LegendNANA
07:00 -2.3 -3.9 89 0.0 3 13   97.46   -7 LegendNANA
08:00 -2.4 -4.0 89 0.0 2 11   97.54   -6 LegendNANA
09:00 -2.1 -4.0 87 0.0 3 13   97.61   -7 LegendNANA
10:00 -1.6 -3.8 85 0.0 3 12   97.66   -6 LegendNANA
11:00 -1.3 -3.6 84 0.0 4 11   97.70   -5 LegendNANA
12:00 -0.7 -3.2 84 0.0 5 12   97.71   -5 LegendNANA
13:00 -0.1 -2.8 82 0.0 7 13   97.66   -4 LegendNANA
14:00 -0.2 -3.1 81 0.0 5 10   97.64   -4 LegendNANA
15:00 -0.4 -3.1 82 0.0 5 10   97.64   -4 LegendNANA
16:00 -0.6 -2.9 84 0.0 5 11   97.66   -4 LegendNANA
17:00 -0.7 -2.9 85 0.0 7 9   97.68   -4 LegendNANA
18:00 -0.8 -2.8 86 0.0 9 7   97.69   -3 LegendNANA
19:00 -0.9 -2.8 87 0.0 13 6   97.68   -3 LegendNANA
20:00 -0.7 -2.8 85 0.0 15 8   97.68   -4 LegendNANA
21:00 -0.5 -2.7 86 0.0 15 7   97.66   -3 LegendNANA
22:00 -0.4 -2.3 87 0.0 13 8   97.62   -3 LegendNANA
23:00 -0.4 -2.1 88 0.0 12 12   97.55   -4 LegendNANA

Notes on Data Quality.

Legend

  • E = Estimated
  • M = Missing
  • NA = Not Available*
  • [empty] = Indicates an unobserved value
Date modified: